Location: Julian California
(33.0790°N, 116.6010°W)
Time: 13:40:53
(UTC-07:00)

Cosmos 1709 Rocket - Pass Details

Date: 12 July 2018
Orbit: 947 x 1003 km, 82.9° (Epoch: 21 July)

Event Time Altitude Azimuth Distance (km) Brightness Sun altitude
Rises 20:19:38 0° 359° (N) 3,625 7.4 -5.0°
Reaches altitude 10° 20:22:12 10° 4° (N) 2,673 6.7 -5.4°
Maximum altitude 20:28:09 54° 81° (E) 1,140 4.1 -6.5°
Drops below altitude 10° 20:34:04 10° 158° (SSE) 2,661 5.8 -7.6°
Enters shadow 20:36:35 - 163° (SSE) 3,596 6.5 -8.0°
